Regional Weather Roundup
Issued by NWS

Home | Current Version | Previous Version | Text Only | Print | Product List | Glossary On
Versions: 1 2 3 4 5 6 7 8 9 10 11 12 13 14 15 16 17 18 19 20 21 22 23 24 25 26 27 28 29 30 31 32 33 34 35 36 37 38 39 40 41 42 43 44 45 46 47 48 49 50
000
ASUS44 KOUN 121010
RWROK

WEATHER ROUNDUP FOR OKLAHOMA
NATIONAL WEATHER SERVICE NORMAN OK
400 AM CST FRI FEB 12 2016

NOTE: "FAIR" INDICATES FEW OR NO CLOUDS BELOW 12,000 FEET WITH NO
      SIGNIFICANT WEATHER AND/OR OBSTRUCTIONS TO VISIBILITY.

OKZ001>007-009>012-014-015-017-121100-
NORTHWEST OKLAHOMA AND THE PANHANDLE

CITY           SKY/WX    TMP DP  RH WIND       PRES   REMARKS
GAGE           CLOUDY    29  26  89 SW7       30.22S WCI  22
GUYMON         CLOUDY    36  25  64 NW8       30.27R WCI  30
ENID/WOODRING  CLOUDY    32  28  86 N3        30.21R
$$

OKZ016-021>023-033>039-044-045-121100-
SOUTHWEST OKLAHOMA

CITY           SKY/WX    TMP DP  RH WIND       PRES   REMARKS
LAWTON/REGL    CLOUDY    32  29  88 CALM      30.20R
LAWTON/FT SILL CLOUDY    34  31  89 N8        30.19R WCI  27
FREDERICK      CLOUDY    41  33  73 NE7       30.17R
CLINTON        CLOUDY    36  31  82 NW8       30.24R WCI  30
HOBART         CLEAR     37  32  82 N7        30.23R WCI  32
ALTUS AFB      CLEAR     40  32  74 NW10      30.21R WCI  33
$$

OKZ018>020-024>031-121100-
CENTRAL OKLAHOMA

CITY           SKY/WX    TMP DP  RH WIND       PRES   REMARKS
OKLAHOMA CITY  CLOUDY    37  33  85 N7        30.20R WCI  32
OKC/WILEY POST CLEAR     37  30  75 CALM      30.21S
OKC/TINKER AFB CLOUDY    39  30  69 N3        30.19S
STILLWATER     CLEAR     29  26  89 CALM      30.21R
GUTHRIE        CLEAR     29  26  89 S5        30.20S WCI  24
$$

OKZ008-013-054>072-121100-
NORTHEAST OKLAHOMA

CITY           SKY/WX    TMP DP  RH WIND       PRES   REMARKS
TULSA          CLEAR     35  28  75 SW3       30.20R
TULSA/JONES    CLEAR     31  27  85 SW3       30.22R
PONCA CITY     CLEAR     27  22  81 CALM      30.21S
BARTLESVILLE   CLEAR     25  21  85 CALM      30.22R
MUSKOGEE       CLEAR     35  28  75 CALM      30.22R
$$

OKZ032-040>043-046>053-073>077-121100-
SOUTH CENTRAL/SOUTHEAST OKLAHOMA

CITY           SKY/WX    TMP DP  RH WIND       PRES   REMARKS
ARDMORE/DWNTWN CLEAR     41  30  65 CALM      30.19S
MCALESTER      PTCLDY    31  27  85 CALM      30.20S
$$




USA.gov is the U.S. government's official web portal to all federal, state and local government web resources and services.